Location: Helsinki
(60.1699°N, 24.9384°E)
Time: 21:04:29
(UTC+02:00)

Transit 2A Rocket - Pass Details

Date: 27 September 2023
Orbit: 593 x 903 km, 66.7° (Epoch: 29 November)

Event Time Altitude Azimuth Distance (km) Brightness Sun altitude
Rises 01:02:24 0° 305° (NW) 2,969 8.5 -31.2°
Enters shadow 01:05:05 - 287° (WNW) 2,174 7.5 -31.2°
Reaches altitude 10° 01:05:53 10° 279° (W) 2,001 - -31.2°
Maximum altitude 01:07:55 13° 251° (WSW) 1,781 - -31.2°
Drops below altitude 10° 01:09:55 10° 224° (SW) 1,951 - -31.2°
Sets 01:13:13 0° 196° (SSW) 2,828 - -31.2°
